Tracking 34142 objects as of 18-May-2026
HD Live streaming from Space Station
objects crossing your sky now

HJS-9C

Track HJS-9C now!
10-day predictions


NORAD ID: 68833
Int'l Code: 2026-091C
Perigee: 508.9 km
Apogee: 523.3 km
Inclination: 55.0 °
Period: 94.8 minutes
Semi major axis: 6887 km
RCS: Unknown
Launch date: April 24, 2026
Source: People's Republic of China (PRC)
Launch site: Xichang Space Center, China (XSC)
Your satellite tracking list
Your tracking list is empty




NASA's NSSDC Master Catalog

Two Line Element Set (TLE):
1 68833U 26091C   26131.62099769  .00001851  00000-0  10239-3 0  9990
2 68833  55.0031 181.4760 0010474 338.0609  21.9961 15.18972133  2646
Source of the keplerian elements: AFSPC